sat.trackr.live / text

‹ back to catalog

PERSEUS-M2

NORAD 40037 · 2014-033AD

PAYLOAD ACTIVE UNKNOWN

§ Identity

Operator
Country
CIS
Launch date
2014-06-19
Launch site
DLS
Launch vehicle
Mass (kg)
RCS (m²)
0.15

Purposes: tech_demo

External: N2YO · Heavens-Above · Gunter

§ Orbital elements

Epoch: 2026-09-10T03:55:59.137824Z

Period
96.27 min
Inclination
98.0039°
Eccentricity
0.0012719
Mean motion
14.95729239 rev/d
Perigee alt
571.3 km
Apogee alt
589.0 km
Semi-major
6,958.2 km
B*
1.8559e-4
RAAN
205.4784°
Arg perigee
25.4443°
Mean anomaly
334.7401°
Rev number
66,348

§ Raw data

PERSEUS-M21 40037U 14033AD  26253.16387891  .00002009  00000+0  18559-3 0  99972 40037  98.0039 205.4784 0012719  25.4443 334.7401 14.95729239663487

JSON: /api/v1/satellites/40037 · /tle

For live sub-satellite position, see the globe view (requires WebGL).

§ Visibility from observer

Set your observer location to see the next 7 days of passes ≥ 10°. The values pass through the URL so the page stays shareable.

No JS? Fill the form by hand. The geolocation button needs JavaScript.